Terminal Aerodrome Forecast
Issued by NWS Greer, SC

Home | Current Version | Previous Version | Text Only | Print | Product List | Glossary On
Versions: 1 2 3 4 5 6 7 8 9 10 11 12 13 14 15 16 17 18 19 20 21 22 23 24 25 26 27 28 29 30 31 32 33 34 35 36 37 38 39 40 41 42 43 44 45 46 47 48 49 50
000
FTUS42 KGSP 042003 AAA
TAFCLT
TAF AMD
KCLT 042003Z 0420/0518 22014G28KT P6SM BKN015 BKN040
     FM042200 21012G22KT P6SM SCT020 BKN040
     FM050800 24007KT P6SM OVC020
     FM051100 23004KT 3SM -RA OVC008
     FM051500 32007KT 1 1/2SM -RA BR OVC012
     FM051700 36010KT 5SM -RA BR OVC015=

USA.gov is the U.S. government's official web portal to all federal, state and local government web resources and services.